Vertical_Velocity
2 0 -2 -2 0 -0 0 1 -1 1 -1 -1 -2 1 -0 1 -4 2 -4 3 -0 0 1 -1 1 2 2 -11 -13 0 -8 0 0 -1 0 -1 -1 1 1 0 -1 -1 -0
-8 2 3 -2 -3 0 -1 -1 2 -0 -1 1 -0 -0 -0 -0 0 2 -8 -4 2 0 -2 3 -1 -1 -1 1 -15 -5 -2 -2 -1 -1 -0 -1 1 0 2 1 -2 -1 0
-5 -3 -5 2 -2 -1 -1 -5 1 1 -2 -0 -1 0 -0 1 1 -1 4 -5 3 0 2 2 -1 -1 4 -0 0 -11 -0 -3 -2 -0 -1 -1 0 0 1 2 1 2 -1
2 -2 -3 -6 1 -1 0 -1 -1 2 -1 -2 2 0 1 -1 -2 3 -1 6 -5 -6 -1 1 -1 -1 0 -1 -1 -3 -9 -0 -4 2 -3 -2 -1 2 0 1 3 0 -0
1 -1 2 1 -4 -3 -2 -1 -0 1 -1 -2 -1 0 0 1 -2 -1 -2 -0 4 -0 -3 1 0 1 -1 -1 -2 -1 -2 0 2 -4 -2 -0 -2 2 -0 -0 2 1 1
3 -2 -2 1 1 -7 -4 0 2 1 1 0 -1 -6 -1 2 1 -0 -0 -3 -1 1 4 3 1 -1 -0 -0 -1 0 -1 -2 -1 -3 -2 -0 0 1 0 -0 0 1 -1
-1 1 -4 1 -2 -3 0 -2 -2 1 -1 1 -2 -1 -3 -1 -1 1 1 -0 0 -1 2 2 -1 0 0 0 -1 -2 0 -0 -4 -1 -5 -2 1 -0 1 2 -1 1 -0
7 -6 4 1 1 0 -3 -4 1 2 1 -0 0 2 -6 -2 1 3 3 2 1 2 -1 2 0 3 -0 3 1 -1 -1 -1 -2 -1 1 -5 1 1 -1 0 0 0 1
1 3 9 -7 4 5 -3 -1 -1 -1 5 4 -0 -0 -3 -4 -0 -11 8 2 1 -2 -0 -1 2 1 -1 -1 4 -0 -1 -3 -0 6 0 -1 1 -5 1 -0 2 -2 2
11 7 13 6 -2 4 0 -3 7 -0 -0 1 2 -2 1 3 -3 1 -16 3 2 0 -1 -1 -2 1 1 0 3 1 1 -2 -2 4 5 -2 4 -2 2 0 1 1 0
-9 9 7 11 3 -2 6 -7 -4 6 -0 -7 0 8 0 1 1 -2 6 -12 -10 6 -2 -1 -1 -0 -0 1 4 -1 1 2 -4 -5 -4 -2 -8 3 2 -0 1 0 0
-13 -1 -2 1 13 -1 -4 14 -1 -2 -5 24 -3 -1 -2 7 -2 -1 -2 6 8 -11 -5 3 -4 2 -1 1 1 3 3 1 3 12 10 4 -4 -1 3 -0 1 -1 -1
12 -5 -8 -4 -6 9 -2 3 2 2 1 -0 6 2 -23 -3 19 -16 1 3 -3 7 -6 -3 6 1 -2 0 5 1 0 -1 4 -3 -3 -14 1 0 1 1 -0 -0 3
-2 16 7 5 -2 14 -5 7 2 3 -1 -3 6 -5 -8 7 15 -3 -3 1 -2 -1 -3 -2 1 -0 1 1 -2 -1 -2 0 1 1 -4 -8 0 0 -1 1 1 1 -0
14 -4 7 5 6 -3 -4 5 -1 2 -2 3 1 1 -5 4 15 -22 -8 5 4 -1 -7 5 -6 1 -0 0 2 -1 -1 1 5 20 6 -6 -0 0 0 1 2 1 0
15 6 4 2 9 -11 11 4 -1 4 4 2 4 -8 -13 6 2 -8 6 8 3 2 -10 20 -3 5 1 2 2 -1 -2 -0 -3 6 3 -1 1 -2 -0 0 2 2 2
-1 4 -8 7 4 -9 12 -4 -6 -1 10 9 2 -14 0 17 -3 5 0 8 -1 4 -4 11 -3 4 0 4 1 0 -1 -3 1 9 19 -2 2 -3 -3 0 2 1 2
-5 -1 4 8 -6 -8 5 -5 0 -6 -1 -0 1 -6 2 29 -3 2 -13 -13 10 3 3 -10 5 2 1 -0 0 2 0 0 -4 1 12 7 3 2 0 -1 0 1 2
10 12 7 -2 -3 -5 3 -13 -0 -0 3 -0 1 3 4 -1 1 3 3 6 -0 3 6 -2 -6 -6 6 -0 0 4 0 1 -1 2 -1 7 -2 -1 -5 -1 1 2 1
3 2 -3 -17 -5 5 -3 -0 4 0 1 4 5 5 7 7 6 13 2 4 4 -1 1 1 -3 -9 3 2 -3 -1 -2 3 1 -1 1 5 5 6 4 -3 -2 -2 -2
6 -20 -9 -4 -9 -8 0 2 2 1 2 4 3 5 6 9 4 14 0 4 4 -0 2 0 7 -6 -2 -3 3 4 -3 1 -4 -1 -0 5 3 3 1 3 -2 4 10
4 1 6 2 -11 9 8 6 44 3 13 4 5 5 3 2 -1 -3 -3 3 1 1 4 -9 -1 -4 0 0 3 3 1 -5 -12 -1 3 1 4 0 3 6 0 -2 -7
-1 -3 -0 4 6 -12 14 -11 -9 1 -4 14 1 -1 6 -3 -1 -4 3 4 2 0 11 25 -5 -2 -5 7 10 0 -1 -2 3 -12 7 0 6 2 -2 -4 -2 16 13
-0 -1 -1 -1 1 -2 -6 2 -0 -2 -16 -3 -1 5 -3 -3 -1 1 -0 10 1 -3 31 -9 -7 8 -2 1 -1 6 5 4 -1 2 -1 -3 -4 0 -0 -2 -1 -4 -5
0 -3 -3 -1 -4 -2 -0 2 1 -1 1 -5 2 2 5 6 1 -0 -2 -7 15 1 4 -2 4 -4 -0 -1 -0 7 -1 1 -7 1 -4 7 1 -3 -1 0 -0 1 1
4 2 1 -0 -2 -1 0 -4 -7 -7 -7 0 -2 0 -3 -5 3 1 -0 13 15 13 -2 -2 -12 9 -4 5 -5 6 9 -10 20 -6 2 -4 6 6 8 -0 1 -5 -0
Height
3132 3133 3134 3135 3137 3138 3139 3140 3140 3141 3142 3142 3143 3144 3145 3146 3147 3147 3144 3146 3146 3146 3146 3145 3145 3144 3143 3143 3142 3145 3146 3148 3149 3151 3153 3154 3157 3159 3161 3163 3165 3166 3168
3129 3130 3131 3133 3134 3135 3136 3137 3138 3139 3139 3140 3140 3141 3142 3143 3143 3144 3141 3141 3143 3143 3143 3143 3143 3142 3142 3142 3142 3143 3145 3145 3147 3148 3150 3152 3154 3156 3158 3161 3163 3165 3167
3125 3127 3128 3129 3131 3133 3133 3135 3135 3136 3137 3137 3137 3138 3139 3139 3140 3140 3140 3138 3138 3139 3140 3140 3140 3140 3140 3140 3140 3142 3141 3143 3145 3146 3147 3149 3151 3154 3156 3158 3161 3163 3165
3120 3122 3124 3126 3128 3129 3131 3132 3133 3133 3134 3133 3134 3135 3135 3135 3136 3136 3135 3136 3134 3133 3134 3135 3136 3137 3137 3136 3137 3138 3138 3140 3142 3144 3145 3146 3149 3151 3153 3155 3159 3160 3163
3115 3118 3120 3121 3123 3125 3128 3129 3129 3130 3131 3131 3131 3131 3131 3132 3132 3132 3131 3131 3132 3131 3129 3130 3131 3132 3132 3133 3133 3134 3135 3134 3135 3139 3142 3143 3145 3148 3151 3152 3155 3158 3160
3110 3112 3114 3116 3118 3120 3123 3125 3126 3127 3127 3128 3127 3127 3128 3128 3128 3128 3127 3127 3127 3127 3126 3125 3125 3126 3127 3128 3128 3128 3129 3130 3129 3132 3136 3140 3141 3144 3147 3149 3151 3154 3156
3103 3106 3108 3110 3113 3115 3118 3120 3121 3123 3123 3124 3124 3124 3124 3124 3124 3124 3123 3123 3122 3121 3121 3121 3120 3120 3121 3122 3123 3123 3123 3125 3127 3128 3129 3134 3137 3139 3143 3146 3148 3150 3153
3093 3096 3100 3102 3105 3108 3111 3113 3115 3117 3119 3120 3120 3121 3121 3122 3121 3120 3120 3119 3118 3117 3116 3115 3116 3115 3114 3115 3116 3117 3118 3119 3121 3123 3124 3127 3131 3134 3138 3141 3144 3145 3149
3086 3088 3092 3095 3099 3102 3104 3107 3109 3110 3113 3115 3115 3116 3116 3117 3116 3115 3116 3115 3114 3113 3112 3111 3110 3110 3109 3108 3109 3110 3110 3111 3111 3114 3116 3120 3124 3126 3131 3135 3139 3141 3143
3083 3084 3086 3088 3091 3095 3098 3100 3103 3104 3106 3108 3109 3110 3111 3112 3111 3112 3108 3109 3109 3108 3107 3106 3104 3103 3103 3102 3102 3103 3104 3103 3103 3107 3108 3113 3118 3121 3125 3129 3133 3136 3138
3076 3080 3081 3083 3085 3088 3092 3093 3098 3098 3099 3100 3101 3103 3104 3106 3107 3106 3105 3103 3102 3102 3101 3100 3099 3097 3096 3096 3095 3095 3097 3097 3099 3101 3102 3107 3109 3114 3119 3123 3127 3130 3132
3062 3075 3076 3078 3080 3079 3084 3087 3088 3091 3092 3088 3093 3095 3098 3099 3099 3099 3099 3100 3097 3094 3094 3093 3091 3091 3089 3088 3088 3087 3089 3089 3088 3089 3094 3100 3104 3108 3113 3116 3120 3123 3126
3051 3065 3068 3070 3074 3073 3076 3077 3079 3082 3084 3084 3086 3089 3088 3092 3092 3093 3092 3093 3091 3092 3087 3086 3085 3084 3083 3082 3081 3081 3081 3081 3083 3084 3088 3092 3099 3102 3106 3109 3112 3116 3119
3049 3057 3059 3061 3066 3064 3068 3068 3070 3073 3075 3076 3080 3081 3080 3082 3085 3085 3082 3083 3084 3083 3082 3081 3080 3078 3077 3075 3074 3074 3075 3075 3077 3079 3082 3088 3092 3095 3098 3102 3105 3109 3112
3046 3048 3052 3053 3056 3054 3060 3061 3062 3064 3065 3067 3070 3071 3073 3074 3073 3074 3074 3076 3076 3075 3074 3074 3072 3072 3070 3068 3067 3067 3067 3070 3070 3070 3073 3079 3083 3086 3090 3094 3097 3100 3104
3040 3039 3042 3046 3043 3047 3053 3051 3054 3055 3056 3058 3061 3061 3063 3065 3063 3063 3065 3068 3067 3066 3065 3069 3065 3065 3064 3062 3060 3059 3059 3061 3062 3063 3066 3070 3075 3078 3082 3086 3089 3093 3095
3025 3030 3035 3036 3034 3040 3043 3043 3045 3047 3047 3049 3051 3052 3052 3054 3056 3057 3058 3058 3057 3058 3055 3061 3058 3057 3056 3055 3054 3052 3052 3051 3053 3055 3056 3060 3065 3069 3072 3076 3080 3084 3087
3020 3024 3027 3025 3026 3032 3031 3031 3035 3037 3038 3040 3042 3043 3043 3043 3046 3047 3047 3048 3048 3049 3047 3048 3050 3048 3047 3046 3046 3045 3044 3045 3043 3045 3047 3051 3054 3057 3061 3066 3071 3075 3078
3015 3016 3015 3017 3021 3022 3021 3024 3025 3027 3029 3031 3033 3034 3035 3036 3036 3037 3037 3038 3039 3039 3038 3036 3039 3038 3039 3038 3038 3037 3036 3036 3036 3038 3040 3043 3046 3048 3054 3059 3062 3066 3069
3005 3005 3008 3011 3012 3010 3011 3013 3015 3016 3018 3021 3023 3024 3025 3025 3026 3027 3027 3028 3029 3028 3028 3025 3027 3027 3028 3030 3028 3028 3028 3029 3029 3030 3032 3035 3038 3041 3044 3047 3052 3055 3058
2998 3001 3003 3003 3003 3002 3003 3004 3005 3006 3006 3008 3010 3012 3013 3014 3015 3013 3014 3016 3017 3016 3016 3015 3015 3015 3019 3019 3019 3021 3020 3021 3022 3023 3026 3028 3031 3033 3033 3036 3039 3042 3045
2995 2995 2994 2993 2997 2994 2995 2993 2988 2995 2995 2996 2998 2999 3000 3000 2999 3001 3002 3003 3005 3005 3004 3003 3004 3003 3008 3009 3010 3011 3012 3011 3013 3017 3018 3020 3021 3022 3024 3025 3028 3032 3035
2994 2993 2991 2990 2987 2989 2986 2986 2987 2986 2985 2985 2984 2987 2987 2987 2987 2987 2989 2989 2991 2992 2990 2990 2990 2992 2996 3000 2999 3001 3002 3004 3003 3008 3010 3010 3012 3014 3015 3018 3022 3025 3029
2995 2993 2991 2990 2988 2986 2984 2981 2979 2977 2977 2976 2975 2974 2975 2973 2973 2974 2974 2974 2978 2979 2977 2976 2976 2980 2984 2987 2987 2991 2993 2995 2996 2996 2999 3000 3003 3004 3006 3008 3011 3014 3018
2996 2994 2992 2989 2987 2985 2983 2979 2975 2972 2969 2967 2966 2963 2963 2961 2962 2961 2960 2961 2961 2962 2963 2963 2965 2968 2971 2976 2978 2981 2982 2983 2985 2987 2988 2992 2994 2996 2998 2999 3001 3004 3007
2995 2992 2990 2988 2985 2982 2979 2975 2973 2970 2968 2965 2961 2958 2954 2953 2951 2948 2948 2947 2947 2949 2950 2954 2955 2957 2960 2965 2966 2969 2970 2973 2974 2976 2979 2982 2983 2986 2987 2989 2991 2994 2996